www.pogodaiklimat.ru

Погода и климат >> Архив погоды >> Австралия >> Perth


АРХИВ ПОГОДЫ в Perth

Время (UTC), дата Ветер
(напр.,м/с)
 
Видим.   Явления Облачность Т
(С)
Тd
(С)
f
(%)
Тe
(С)
Тes
(С)
Комфортность P
(гПа)
Po
(гПа)
Тmin
(С)
Tmax
(С)
R
(мм)
R24
(мм)
S
(см)
13 8.08 С 7 5000 м слабый ливневой дождь {морось} 6/6 300 м
[Cu Sc]
+14.0 +13.1 94 +12 +12 тепло 1010.2 1007.8 +17.7
14 8.08 СВ 1 н/о н/о +14.0 1006.9
15 8.08 С 6 н/о н/о +13.8 +12.9 94 +12 +12 тепло 1008.4 1006.0
16 8.08 С 7 15 км осадки на расстоянии {ливн. осадки} 5/5 300 м
[Cu Sc]
+14.1 +13.2 94 +12 +12 тепло 1007.4 1005.0
18 8.08 СЗ 10 н/о н/о +16.8 +12.3 75 +15 +15 тепло 1005.0 1002.6
19 8.08 З 10 5000 м дождь {ливн. осадки} 9/4 300 м
[Cu med, cong As op]
+14.3 +12.8 91 +12 +12 тепло 1004.3 1001.9
20 8.08 З 3 н/о н/о +16.8 1002.5
21 8.08 З 6 н/о н/о +12.5 +11.2 92 +10 +10 по сезону 1005.7 1003.3
22 8.08 З 7 8000 м слабый дождь 9/9 300 м
[Sc]
+12.3 +9.6 84 +9 +9 тепло 1006.1 1003.7
00 9.08 ЮЗ 8 н/о н/о +13.5 +6.4 62 +11 +11 тепло 1008.1 1005.7
02 9.08 З 3 н/о н/о +14.2 1007.5
01 9.08 ЮЗ 10 20 км осадки на расстоянии {дождь} 8/8 1000 м
[Cu Sc]
+13.5 +5.4 58 +11 +11 по сезону 1009.2 1006.8 +11.7
03 9.08 З 6 н/о н/о +13.9 +7.9 67 +12 +12 по сезону 1010.3 1007.9
04 9.08 З 7 12 км слабый ливневой дождь 9/9 300 м
[Cu Sc]
+12.2 +9.0 81 +9 +10 очень
холодно
1010.6 1008.2
06 9.08 З 10 н/о н/о +13.9 +5.7 58 +11 +11 холодно 1010.5 1008.1
07 9.08 З 10 20 км в посл. час ливневой дождь {гроза} 9/9 1000 м
[Cu Sc]
+14.4 +3.3 47 +12 +12 по сезону 1011.4 1009.0
08 9.08 З 2 н/о н/о +12.6 1010.2
09 9.08 ЮЗ 9 н/о н/о +11.9 +5.7 66 +9 +9 прохладно 1013.3 1010.9
10 9.08 Ю 4 20 км в посл. час дождь 5/5 600 м
[Cu Sc Ci ing]
+9.3 +7.0 86 +7 +7 по сезону 1014.2 1011.8
12 9.08 Ю 4 н/о н/о +8.9 +6.1 83 +6 +6 прохладно 1016.9 1014.5
13 9.08 ЮВ 4 25 км в посл. час дождь {ливн. осадки} 6/4 600 м
[Sc Ac trans]
+8.0 +6.7 91 +5 +5 по сезону 1017.6 1015.2 +16.9
14 9.08 ЮВ 1 н/о н/о +9.5 1016.8
15 9.08 Ю 3 н/о н/о +7.4 +6.3 93 +5 +5 прохладно 1019.9 1017.5
16 9.08 В 3 20 км в посл. час дождь {ливн. осадки} 8/8 1000 м
[Sc]
+7.0 +5.7 91 +4 +4 по сезону 1020.4 1018.0
18 9.08 Ю 5 н/о н/о +7.3 +5.0 85 +3 +3 прохладно 1021.8 1019.4
19 9.08 С 4 25 км в посл. час ливневой дождь 8/8 1000 м
[Sc]
+7.0 +6.1 94 +3 +3 по сезону 1021.7 1019.3
20 9.08 В 1 н/о н/о +7.4 1020.2
21 9.08 С 2 н/о н/о +4.3 +3.8 97 +2 +2 холодно 1022.9 1020.5
22 9.08 С 2 25 км ясно +3.3 +2.8 97 0 0 прохладно 1024.2 1021.8
00 10.08 СВ 3 н/о н/о +5.6 +4.9 95 +2 +2 холодно 1026.5 1024.1
02 10.08 ЮЗ 1 н/о н/о +6.7 1025.4
01 10.08 СВ 2 30 км 1/1 600 м
[Cu Sc]
+8.7 +5.8 82 +7 +10 прохладно 1027.0 1024.6 +2.6
03 10.08 Ю 4 н/о н/о +12.4 +3.6 55 +11 +11 по сезону 1027.8 1025.4
04 10.08 Ю 6 30 км 4/4 600 м
[Cu hum]
+13.5 +3.1 49 +12 +14 холодно 1027.6 1025.2
06 10.08 ЮЗ 6 н/о н/о +13.6 +3.3 50 +12 +12 холодно 1026.7 1024.3
07 10.08 ЮЗ 5 30 км 3/3 1000 м
[Sc]
+14.6 +2.9 45 +13 +15 по сезону 1026.6 1024.2
08 10.08 ЮЗ 2 н/о н/о +13.8 1025.3
09 10.08 ЮЗ 5 н/о н/о +13.4 +3.8 52 +12 +12 по сезону 1028.2 1025.8
10 10.08 ЮЗ 4 30 км 6/6 600 м
[Cu Sc]
+12.1 +4.6 60 +10 +10 по сезону 1029.0 1026.6
12 10.08 Ю 3 н/о н/о +8.7 +6.1 84 +6 +6 прохладно 1030.2 1027.8
13 10.08 СВ 2 30 км 1/1 1500 м
[Sc]
+7.2 +5.6 90 +5 +5 по сезону 1030.6 1028.2 +15.1
14 10.08 штиль 0 н/о н/о +8.5 1028.6
15 10.08 С 3 н/о н/о +5.2 +4.7 97 +2 +2 холодно 1030.8 1028.4
16 10.08 В 2 30 км 1/1 1500 м
[Sc]
+5.1 +4.6 97 +3 +3 по сезону 1030.6 1028.2
18 10.08 С 2 н/о н/о +3.8 +3.3 97 +1 +1 холодно 1030.0 1027.6
19 10.08 С 3 25 км 1/1 1500 м
[Sc]
+3.3 +2.8 97 -1 -1 холодно 1029.8 1027.4
20 10.08 З 1 н/о н/о +4.1 1027.0
21 10.08 СВ 2 н/о н/о +4.5 +3.8 95 +2 +2 холодно 1029.0 1026.6
22 10.08 С 3 25 км ясно +4.9 +4.2 95 +1 +1 прохладно 1029.7 1027.3
00 11.08 СВ 3 н/о н/о +6.5 +4.9 90 +4 +4 прохладно 1031.1 1028.7
02 11.08 В 1 н/о н/о +7.3 1029.2
01 11.08 СВ 4 30 км 1/1 1500 м
[Sc]
+9.7 +5.0 73 +7 +10 прохладно 1031.4 1029.0 +3.3
03 11.08 СВ 3 н/о н/о +14.2 +4.4 52 +14 +14 по сезону 1031.1 1028.7
04 11.08 В 2 30 км 1/1 2000 м
[Sc]
+14.9 +3.3 46 +15 +25 по сезону 1030.7 1028.3
06 11.08 СВ 4 н/о н/о +16.5 +4.5 45 +16 +16 по сезону 1028.3 1025.9
07 11.08 С 4 30 км 1/1 1500 м
[Sc]
+16.8 +4.1 43 +16 +20 тепло 1028.2 1025.8
08 11.08 С 1 н/о н/о +16.8 1025.5
09 11.08 С 4 н/о н/о +16.2 +6.0 51 +16 +16 тепло 1027.4 1025.0
10 11.08 С 3 30 км ясно +12.1 +7.5 73 +11 +11 тепло 1028.0 1025.6
12 11.08 СВ 2 н/о н/о +8.9 +6.7 86 +8 +8 по сезону 1028.4 1026.0
13 11.08 С 2 30 км ясно +7.4 +6.1 91 +5 +5 по сезону 1028.4 1026.0 +17.6
14 11.08 штиль 0 н/о н/о +8.9 1026.3
15 11.08 СВ 3 н/о н/о +5.8 +5.1 95 +3 +3 холодно 1028.2 1025.8
16 11.08 СВ 3 30 км ясно +7.0 +5.2 88 +4 +4 по сезону 1027.7 1025.3
18 11.08 СВ 4 н/о н/о +7.7 +4.5 80 +5 +5 по сезону 1027.0 1024.6
19 11.08 СВ 3 30 км ясно +7.4 +4.1 80 +5 +5 по сезону 1026.4 1024.0
20 11.08 В 1 н/о н/о +8.2 1023.7
21 11.08 СВ 3 н/о н/о +7.2 +3.7 78 +5 +5 прохладно 1025.9 1023.5
22 11.08 СВ 3 30 км ясно +7.3 +3.5 77 +4 +4 по сезону 1026.2 1023.8
00 12.08 СВ 5 н/о н/о +9.2 +2.8 64 +6 +6 по сезону 1026.5 1024.1
02 12.08 СВ 1 н/о н/о +10.2 1024.2
01 12.08 СВ 4 30 км ясно +12.7 +3.2 52 +11 +14 по сезону 1026.7 1024.3 +5.9
03 12.08 С 6 н/о н/о +17.5 +2.8 37 +17 +17 тепло 1026.0 1023.6
04 12.08 С 8 30 км ясно +18.9 +0.5 29 +18 +20 тепло 1025.0 1022.6
06 12.08 С 6 н/о н/о +20.6 +2.9 31 +21 +21 комфорт 1023.0 1020.6
07 12.08 С 5 30 км ясно +20.5 +1.3 28 +21 +24 комфорт 1022.9 1020.5
08 12.08 СВ 1 н/о н/о +20.3 1020.7
09 12.08 З 4 н/о н/о +19.7 +3.6 34 +20 +20 тепло 1022.9 1020.5
10 12.08 СЗ 2 30 км ясно +15.2 +7.3 59 +15 +15 тепло 1022.8 1020.4
12 12.08 СВ 3 н/о н/о +11.1 +6.4 73 +10 +10 по сезону 1023.3 1020.9
13 12.08 СВ 3 30 км ясно +10.7 +6.2 74 +9 +9 по сезону 1023.1 1020.7 +21.1
14 12.08 В 1 н/о н/о +11.7 1020.5
15 12.08 СВ 2 н/о н/о +10.2 +5.4 72 +9 +9 по сезону 1022.1 1019.7
16 12.08 СВ 4 30 км ясно +9.6 +5.2 74 +7 +7 по сезону 1021.9 1019.5
18 12.08 СВ 3 н/о н/о +8.9 +4.6 74 +7 +7 по сезону 1021.1 1018.7
19 12.08 С 3 30 км ясно +9.0 +4.2 72 +7 +7 по сезону 1020.2 1017.8
20 12.08 В 1 н/о н/о +9.2 1017.2
21 12.08 СВ 4 н/о н/о +9.2 +3.4 67 +7 +7 по сезону 1019.1 1016.7
22 12.08 СВ 4 30 км ясно +8.0 +3.3 72 +5 +5 по сезону 1019.1 1016.7
00 13.08 С 4 н/о н/о +10.2 +3.8 64 +8 +8 по сезону 1019.5 1017.1
02 13.08 СВ 1 н/о н/о +11.6 1016.9
01 13.08 С 5 30 км ясно +14.6 +2.4 44 +13 +15 по сезону 1019.4 1017.0 +6.4
03 13.08 С 6 н/о н/о +20.0 +0.4 27 +20 +20 тепло 1018.7 1016.3
04 13.08 С 8 30 км ясно +21.4 -0.6 23 +21 +23 комфорт 1017.9 1015.5
06 13.08 СЗ 7 н/о н/о +22.6 +4.2 30 +23 +23 комфорт 1015.5 1013.1
07 13.08 СЗ 8 30 км ясно +23.0 +4.6 30 +23 +24 комфорт 1014.7 1012.3
08 13.08 С 2 н/о н/о +22.9 1012.2
09 13.08 С 8 н/о н/о +21.6 +4.4 32 +22 +22 комфорт 1013.8 1011.4
10 13.08 С 8 30 км 1/1 2000 м
[Sc]
+19.7 +2.1 31 +19 +19 тепло 1014.5 1012.1
12 13.08 С 6 н/о н/о +16.6 +3.9 43 +16 +16 тепло 1015.6 1013.2
13 13.08 С 5 30 км 1/1 2000 м
[Sc]
+14.7 +5.1 53 +13 +13 тепло 1015.7 1013.3 +23.4
14 13.08 В 1 н/о н/о +16.2 1013.5
15 13.08 С 5 н/о н/о +14.7 +7.2 61 +13 +13 тепло 1015.5 1013.1
16 13.08 С 4 30 км в посл. час дождь 9/9 1000 м
[Sc]
+14.5 +8.8 69 +13 +13 тепло 1015.1 1012.7
18 13.08 З 3 н/о н/о +13.4 +12.7 96 +12 +12 тепло 1015.6 1013.2
19 13.08 СЗ 4 25 км в посл. час дождь 10/10 200 м
[Sc]
+13.6 +12.3 92 +12 +12 тепло 1015.5 1013.1
20 13.08 С 1 н/о н/о +13.5 1013.5
21 13.08 С 3 н/о н/о +13.7 +13.3 97 +13 +13 тепло 1015.9 1013.5
22 13.08 С 3 9000 м слабый дождь {морось} 9/9 300 м
[Sc]
+13.7 +13.2 97 +13 +13 тепло 1015.9 1013.5
00 14.08 З 3 н/о н/о +14.6 +12.0 84 +14 +14 тепло 1017.8 1015.4
02 14.08 З 2 н/о н/о +15.1 1016.7
01 14.08 ЮЗ 3 15 км мгла {дождь} 6/3 600 м
[Cu Sc Ac trans]
+15.7 +10.8 73 +15 +17 тепло 1018.5 1016.1 +10.2
03 14.08 З 7 н/о н/о +17.4 +5.9 47 +17 +17 тепло 1019.0 1016.6
04 14.08 ЮЗ 7 15 км мгла 3/3 1000 м
[Cu Sc]
+17.2 +7.2 52 +16 +18 по сезону 1019.0 1016.6
06 14.08 З 6 н/о н/о +17.2 +6.1 48 +16 +16 по сезону 1018.5 1016.1
07 14.08 З 6 20 км мгла 3/3 1000 м
[Cu Sc]
+17.5 +5.8 46 +17 +19 тепло 1018.6 1016.2
08 14.08 З 2 н/о н/о +17.9 1017.1
09 14.08 Ю 8 н/о н/о +15.5 +9.3 67 +14 +14 по сезону 1019.9 1017.5
10 14.08 ЮЗ 4 20 км осадки на расстоянии {ливн. осадки} 3/3 1000 м
[Cu Sc]
+15.0 +7.7 62 +14 +14 тепло 1020.2 1017.8
12 14.08 ЮЗ 4 н/о н/о +13.4 +11.7 89 +12 +12 по сезону 1021.8 1019.4
13 14.08 Ю 4 12 км слабая морось {ливн. осадки} 9/9 300 м
[Cu Sc]
+12.9 +11.8 93 +11 +11 тепло 1022.2 1019.8 +18.9
14 14.08 Ю 2 н/о н/о +13.3 1020.6
15 14.08 Ю 3 н/о н/о +12.3 +10.4 88 +11 +11 по сезону 1022.6 1020.2
16 14.08 В 2 20 км {ливн. осадки, морось} 8/8 300 м
[Sc]
+11.9 +10.7 92 +11 +11 тепло 1022.5 1020.1
18 14.08 штиль 0 н/о н/о +11.4 +10.6 95 +11 +11 тепло 1022.5 1020.1
19 14.08 Ю 2 20 км 9/9 1000 м
[Sc]
+11.4 +10.8 96 +10 +10 тепло 1022.4 1020.0
20 14.08 ЮВ 1 н/о н/о +11.6 1020.3
21 14.08 штиль 0 н/о н/о +10.8 +10.2 96 +10 +10 по сезону 1022.9 1020.5
22 14.08 СВ 3 20 км 9/9 1000 м
[Sc]
+10.9 +9.7 92 +9 +9 тепло 1023.2 1020.8
00 15.08 С 3 н/о н/о +12.8 +10.5 86 +11 +11 тепло 1024.1 1021.7
02 15.08 Ю 1 н/о н/о +13.0 1022.5
01 15.08 СВ 3 20 км мгла 3/3 1000 м
[Sc]
+14.1 +6.6 61 +13 +16 по сезону 1024.6 1022.2 +10.7
03 15.08 Ю 3 н/о н/о +16.3 +6.7 53 +16 +16 тепло 1024.4 1022.0
04 15.08 ЮЗ 4 25 км 4/4 1000 м
[Cu med, cong]
+16.8 +5.8 48 +16 +21 по сезону 1023.9 1021.5
06 15.08 ЮЗ 5 н/о н/о +17.1 +4.3 43 +16 +16 по сезону 1022.8 1020.4
07 15.08 ЮЗ 6 25 км 3/3 1500 м
[Cu Sc]
+18.2 +4.5 40 +18 +19 тепло 1022.5 1020.1
08 15.08 З 1 н/о н/о +17.1 1020.3
09 15.08 З 5 н/о н/о +15.8 +5.8 51 +15 +15 по сезону 1022.7 1020.3
10 15.08 ЮЗ 4 25 км 4/4 1000 м
[Sc]
+14.7 +7.4 62 +14 +14 тепло 1022.9 1020.5

 

Местоположение метеостанции Perth (Западная Австралия, Австралия): широта -31.93 долгота 115.96 высота над уровнем моря 20 м.

В архиве по умолчанию представлена погода в Perth за последнюю неделю. Архивные данные за месяц целиком и за предыдущие месяцы, начиная с января 2011 года, Вы можете получить, выбрав интересующий диапазон дат из раскрывающегося списка и нажав кнопку "Ввод!".


*Определитесь, кто Вы:
робот инопланетянин человек

Внимание! Время в таблицах - всемирное. Для получения местного времени необходимо прибавить поправку, которая в Perth равна 8 ч.

Смотрите также архив погоды в соседних городах и на ближайших метеорологических станциях:

Погода в Mount Lawley Perth Metro (Западная Австралия, Австралия) (9 км)
Погода в Goosebery Hill (Западная Австралия, Австралия) (9 км)
Погода в Swanbourne (Западная Австралия, Австралия) (18 км)
Погода в Kalamunda Bickley (Западная Австралия, Австралия) (19 км)
Погода в Perth Jandakot Airport (Западная Австралия, Австралия) (20 км)
Погода в Wanneroo (Западная Австралия, Австралия) (29 км)
Погода в Bullsbrook Pearce Amo (Западная Австралия, Австралия) (29 км)
Погода в Garden Island Airpoet (Западная Австралия, Австралия) (43 км)
Погода в Rottnest Island (Западная Австралия, Австралия) (45 км)
Погода в Gingin Aero (Западная Австралия, Австралия) (52 км)

Пояснения к столбцам:

Ветер - указаны скорость ветра в м/с - средняя за 10 мин, порывы в срок и между сроками (в фигурных скобках) и направление, откуда дует ветер: С - северный, СВ - северо-восточный, В - восточный, ЮВ - юго-восточный, Ю - южный, ЮЗ - юго-западный, З - западный, СЗ - северо-западный.
Видимость - горизонтальная дальность видимости в метрах или километрах. При видимости от 1 до 10 км при отсутствии осадков обычно наблюдается дымка, при ухудшении видимости до 1 км и менее - туман. В сухую погоду видимость может ухудшаться дымом, пылью или мглою.
Явления - указаны атмосферные явления, наблюдавшиеся в срок или в последний час перед сроком; фигурными скобками обозначены явления, наблюдавшиеся между сроками (за 1-3 часа до срока); квадратными скобками обозначены град или гололедные отложения с указанием их диаметра в мм.
Облачность - указаны через наклонную черту общая и нижняя облачность в баллах и высота нижней границы облаков в метрах; квадратными скобками обозначены формы облаков: Ci - перистые, Cs - перисто-слоистые, Cc - перисто-кучевые, Ac - высококучевые, As - высокослоистые, Sc - слоисто-кучевые, Ns - слоисто-дождевые, Cu - кучевые, Cb - кучево-дождевые. Подробнее классификацию облаков см. в Атласе облаков (PDF).
T - Температура воздуха - температура, измеренная на высоте 2 м над землей.
Td - Температура точки росы - температура, при понижении до которой содержащийся в воздухе водяной пар достигнет насыщения.
f - Относительная влажность воздуха - влажноcть воздуха, измеренная на высоте 2 м над землей.
Te - Эффективная температура - температура, которую ощущает одетый по сезону человек в тени. Характеристика душности погоды. При расчете учитывается влияние влажности воздуха и скорости ветра на теплоощущения человека.
Tes - Эффективная температура на солнце - температура, которую ощущает человек, с поправкой на солнечный нагрев. Характеристика знойности погоды. Зависит от высоты солнца над горизонтом, облачности и скорости ветра. Ночью, в пасмурную погоду, а также при ветре 12 м/с и более поправка равна нулю.
P - Атмосферное давление - приведенное к уровню моря атмосферное давление.
Po - Атмосферное давление - измеренное на уровне метеостанции атмосферное давление.
Tmin - Минимальная температура - минимум температуры воздуха на высоте 2 м над землей.
Tmax - Максимальная температура - максимум температуры воздуха на высоте 2 м над землей.
R - Количество осадков - Количество выпавших осадков за период времени, мм. При наведении курсора мыши на число - период времени, за который выпало указанное количество осадков.
R24 - Количество осадков - Количество выпавших осадков за 24 часа, мм.
S - Снежный покров - Высота снежного покрова, см. При наведении курсора мыши на число - состояние снежного покрова и степень покрытия местности в баллах.